| time (UTC) | temp F | wind direction | speed knots | gust knots | rain 1hr in | rain 24hr in | rain mn in | humidity % | barometer mb |
| 20260508033049 | 44 | 305 | 0.0 | 0.0 | 0.00 | 0.02 | 0.00 | 93 | 1017.3 |
| 20260508031547 | 45 | 305 | 0.0 | 0.0 | 0.00 | 0.02 | 0.00 | 92 | 1017.4 |
| 20260508030047 | 45 | 305 | 0.0 | 0.0 | 0.00 | 0.02 | 0.00 | 92 | 1017.4 |
| 20260508024547 | 45 | 305 | 0.0 | 0.0 | 0.00 | 0.02 | 0.00 | 92 | 1017.5 |
| 20260508023047 | 45 | 305 | 0.0 | 0.0 | 0.00 | 0.02 | 0.00 | 92 | 1017.6 |
| 20260508021554 | 45 | 305 | 0.0 | 0.0 | 0.00 | 0.02 | 0.00 | 91 | 1017.5 |
| 20260508020048 | 45 | 305 | 0.0 | 0.0 | 0.00 | 0.02 | 0.00 | 90 | 1017.4 |
| 20260508014541 | 46 | 305 | 0.0 | 0.0 | 0.00 | 0.02 | 0.00 | 90 | 1017.3 |
| 20260508013052 | 46 | 305 | 0.0 | 0.0 | 0.00 | 0.02 | 0.00 | 88 | 1017.4 |
| 20260508011541 | 47 | 305 | 0.0 | 0.0 | 0.00 | 0.02 | 0.00 | 88 | 1017.4 |
| 20260508010035 | 48 | 305 | 0.0 | 0.0 | 0.00 | 0.02 | 0.00 | 87 | 1017.3 |
| 20260508004532 | 49 | 305 | 0.0 | 0.9 | 0.00 | 0.02 | 0.00 | 87 | 1017.4 |
| 20260508003030 | 49 | 311 | 0.0 | 0.9 | 0.00 | 0.02 | 0.00 | 87 | 1017.5 |
| 20260508001554 | 49 | 311 | 0.0 | 0.0 | 0.00 | 0.02 | 0.00 | 88 | 1017.6 |
| 20260508000026 | 49 | 311 | 0.0 | 0.0 | 0.00 | 0.02 | 0.00 | 87 | 1017.6 |
| 20260507234526 | 50 | 311 | 0.0 | 0.0 | 0.00 | 0.02 | 0.00 | 87 | 1017.7 |
| 20260507233024 | 50 | 311 | 0.0 | 0.0 | 0.00 | 0.02 | 0.00 | 86 | 1017.7 |
| 20260507231529 | 50 | 311 | 0.0 | 0.9 | 0.00 | 0.02 | 0.00 | 86 | 1017.5 |
| 20260507230016 | 50 | 311 | 0.0 | 0.9 | 0.00 | 0.02 | 0.00 | 86 | 1017.6 |
| 20260507224516 | 50 | 314 | 0.0 | 0.9 | 0.00 | 0.02 | 0.02 | 86 | 1017.8 |
| 20260507223016 | 50 | 324 | 0.0 | 0.9 | 0.01 | 0.02 | 0.02 | 86 | 1017.7 |
| 20260507221515 | 50 | 326 | 0.0 | 0.9 | 0.01 | 0.02 | 0.02 | 86 | 1017.7 |
| 20260507220025 | 51 | 312 | 0.0 | 1.7 | 0.02 | 0.02 | 0.02 | 86 | 1017.7 |
| 20260507214515 | 51 | 322 | 0.0 | 1.7 | 0.02 | 0.02 | 0.02 | 85 | 1017.8 |
| 20260507213014 | 51 | 321 | 0.0 | 1.7 | 0.01 | 0.01 | 0.01 | 83 | 1017.8 |
| 20260507211513 | 52 | 321 | 0.0 | 2.6 | 0.00 | 0.00 | 0.00 | 81 | 1017.7 |
| 20260507210013 | 52 | 305 | 0.0 | 2.6 | 0.00 | 0.00 | 0.00 | 77 | 1017.5 |
| 20260507204512 | 53 | 329 | 0.0 | 2.6 | 0.00 | 0.00 | 0.00 | 76 | 1017.5 |
| 20260507203011 | 53 | 339 | 0.9 | 2.6 | 0.00 | 0.00 | 0.00 | 74 | 1017.3 |
| 20260507201513 | 53 | 305 | 0.9 | 4.3 | 0.00 | 0.00 | 0.00 | 72 | 1017.1 |
| 20260507200013 | 54 | 20 | 0.9 | 4.3 | 0.00 | 0.00 | 0.00 | 71 | 1016.8 |
| 20260507194510 | 54 | 316 | 0.9 | 3.5 | 0.00 | 0.00 | 0.00 | 68 | 1016.7 |
| 20260507193010 | 55 | 316 | 0.0 | 3.5 | 0.00 | 0.00 | 0.00 | 66 | 1016.5 |
| 20260507191509 | 55 | 311 | 0.0 | 2.6 | 0.00 | 0.00 | 0.00 | 66 | 1016.6 |
| 20260507190011 | 56 | 306 | 0.0 | 1.7 | 0.00 | 0.00 | 0.00 | 65 | 1016.6 |
| 20260507184508 | 56 | 319 | 0.0 | 3.5 | 0.00 | 0.00 | 0.00 | 63 | 1016.5 |
| 20260507183008 | 57 | 301 | 0.0 | 3.5 | 0.00 | 0.00 | 0.00 | 60 | 1016.5 |
| 20260507181507 | 57 | 300 | 0.0 | 3.5 | 0.00 | 0.00 | 0.00 | 59 | 1016.4 |
| 20260507180009 | 57 | 331 | 0.0 | 3.5 | 0.00 | 0.00 | 0.00 | 57 | 1016.3 |
| 20260507174506 | 58 | 319 | 0.0 | 1.7 | 0.00 | 0.00 | 0.00 | 53 | 1016.2 |
| 20260507173005 | 59 | 326 | 0.9 | 2.6 | 0.00 | 0.00 | 0.00 | 52 | 1016.2 |
| 20260507171512 | 59 | 321 | 0.9 | 1.7 | 0.00 | 0.00 | 0.00 | 51 | 1016.2 |
| 20260507170002 | 59 | 340 | 0.0 | 1.7 | 0.00 | 0.00 | 0.00 | 53 | 1016.3 |
| 20260507164502 | 59 | 26 | 0.0 | 3.5 | 0.00 | 0.00 | 0.00 | 53 | 1016.3 |
| 20260507163002 | 60 | 352 | 0.9 | 5.2 | 0.00 | 0.00 | 0.00 | 50 | 1016.3 |
| 20260507161500 | 60 | 334 | 0.0 | 1.7 | 0.00 | 0.00 | 0.00 | 46 | 1016.3 |
| 20260507160100 | 60 | 333 | 0.0 | 2.6 | 0.00 | 0.00 | 0.00 | 46 | 1016.3 |
| 20260507154605 | 61 | 356 | 0.0 | 2.6 | 0.00 | 0.00 | 0.00 | 43 | 1016.2 |
| 20260507153102 | 61 | 323 | 0.0 | 3.5 | 0.00 | 0.00 | 0.00 | 46 | 1016.3 |
| 20260507151558 | 61 | 206 | 0.0 | 3.5 | 0.00 | 0.00 | 0.00 | 44 | 1016.4 |
| 20260507150057 | 61 | 15 | 0.0 | 2.6 | 0.00 | 0.00 | 0.00 | 44 | 1016.4 |
| 20260507144556 | 62 | 307 | 0.0 | 3.5 | 0.00 | 0.00 | 0.00 | 44 | 1016.5 |
| 20260507143055 | 61 | 93 | 0.0 | 2.6 | 0.00 | 0.00 | 0.00 | 45 | 1016.6 |
| 20260507141554 | 62 | 311 | 0.0 | 3.5 | 0.00 | 0.00 | 0.00 | 40 | 1016.8 |
| 20260507140052 | 62 | 22 | 0.0 | 1.7 | 0.00 | 0.00 | 0.00 | 43 | 1016.9 |
| 20260507134551 | 60 | 353 | 0.0 | 1.7 | 0.00 | 0.00 | 0.00 | 45 | 1017.0 |
| 20260507133048 | 60 | 314 | 0.0 | 0.9 | 0.00 | 0.00 | 0.00 | 47 | 1017.0 |
| 20260507131558 | 60 | 79 | 0.0 | 2.6 | 0.00 | 0.00 | 0.00 | 47 | 1017.1 |
| 20260507124551 | 60 | 314 | 0.0 | 3.5 | 0.00 | 0.00 | 0.00 | 49 | 1017.2 |
| 20260507123044 | 59 | 338 | 0.0 | 2.6 | 0.00 | 0.00 | 0.00 | 50 | 1017.3 |
| 20260507121547 | 60 | 309 | 0.0 | 2.6 | 0.00 | 0.00 | 0.00 | 50 | 1017.2 |
| 20260507120043 | 59 | 306 | 0.9 | 4.3 | 0.00 | 0.00 | 0.00 | 49 | 1017.4 |
| 20260507114546 | 59 | 319 | 0.9 | 3.5 | 0.00 | 0.00 | 0.00 | 52 | 1017.4 |
| 20260507113039 | 59 | 314 | 0.9 | 3.5 | 0.00 | 0.00 | 0.00 | 53 | 1017.4 |
| 20260507111537 | 59 | 338 | 0.0 | 4.3 | 0.00 | 0.00 | 0.00 | 56 | 1017.5 |
| 20260507110035 | 58 | 309 | 0.9 | 4.3 | 0.00 | 0.00 | 0.00 | 56 | 1017.6 |
| 20260507104532 | 58 | 359 | 0.0 | 4.3 | 0.00 | 0.00 | 0.00 | 59 | 1017.7 |
| 20260507103033 | 56 | 313 | 0.0 | 2.6 | 0.00 | 0.00 | 0.00 | 61 | 1017.7 |
| 20260507101532 | 57 | 27 | 0.9 | 2.6 | 0.00 | 0.00 | 0.00 | 59 | 1017.8 |
| 20260507100035 | 57 | 303 | 0.9 | 3.5 | 0.00 | 0.00 | 0.00 | 61 | 1017.8 |
| 20260507094528 | 56 | 346 | 0.0 | 2.6 | 0.00 | 0.00 | 0.00 | 64 | 1017.7 |
| 20260507093025 | 55 | 335 | 0.0 | 1.7 | 0.00 | 0.00 | 0.00 | 66 | 1017.8 |
| 20260507091522 | 54 | 323 | 0.0 | 2.6 | 0.00 | 0.00 | 0.00 | 69 | 1017.7 |
| 20260507090022 | 53 | 334 | 0.0 | 2.6 | 0.00 | 0.00 | 0.00 | 74 | 1017.7 |
| 20260507084518 | 53 | 311 | 0.9 | 3.5 | 0.00 | 0.00 | 0.00 | 71 | 1017.9 |
| 20260507083015 | 52 | 326 | 0.0 | 1.7 | 0.00 | 0.00 | 0.00 | 73 | 1017.8 |
| 20260507081530 | 52 | 349 | 0.0 | 2.6 | 0.00 | 0.00 | 0.00 | 74 | 1017.7 |
| 20260507080009 | 50 | 305 | 0.9 | 2.6 | 0.00 | 0.00 | 0.00 | 79 | 1017.7 |
| 20260507074517 | 49 | 313 | 0.0 | 1.7 | 0.00 | 0.00 | 0.00 | 81 | 1017.7 |
| 20260507073006 | 50 | 337 | 0.0 | 2.6 | 0.00 | 0.00 | 0.00 | 81 | 1017.7 |
| 20260507071504 | 47 | 307 | 0.0 | 1.7 | 0.00 | 0.00 | 0.00 | 85 | 1017.7 |
| 20260507070002 | 48 | 342 | 0.0 | 1.7 | 0.00 | 0.00 | 0.00 | 85 | 1017.6 |
| 20260507064558 | 47 | 297 | 0.0 | 1.7 | 0.00 | 0.00 | 0.00 | 88 | 1017.7 |
| 20260507063057 | 46 | 317 | 0.0 | 1.7 | 0.00 | 0.00 | 0.00 | 91 | 1017.7 |
| 20260507061552 | 45 | 347 | 0.0 | 0.9 | 0.00 | 0.00 | 0.00 | 92 | 1017.6 |
| 20260507060048 | 43 | 349 | 0.0 | 0.9 | 0.00 | 0.00 | 0.00 | 93 | 1017.3 |
| 20260507054616 | 43 | 20 | 0.0 | 0.9 | 0.00 | 0.00 | 0.00 | 93 | 1017.3 |
| 20260507053050 | 42 | 20 | 0.0 | 0.9 | 0.00 | 0.00 | 0.00 | 93 | 1017.3 |
| 20260507051545 | 42 | 20 | 0.0 | 0.0 | 0.00 | 0.00 | 0.00 | 93 | 1017.2 |
| 20260507050043 | 41 | 20 | 0.0 | 0.0 | 0.00 | 0.00 | 0.00 | 94 | 1017.1 |
| 20260507044549 | 40 | 20 | 0.0 | 0.0 | 0.00 | 0.00 | 0.00 | 94 | 1017.1 |
| 20260507043045 | 39 | 20 | 0.0 | 0.0 | 0.00 | 0.00 | 0.00 | 94 | 1017.1 |
| 20260507041548 | 38 | 20 | 0.0 | 0.0 | 0.00 | 0.00 | 0.00 | 92 | 1017.0 |
| 20260507040044 | 39 | 20 | 0.0 | 0.0 | 0.00 | 0.00 | 0.00 | 92 | 1016.9 |
| 20260507034542 | 39 | 20 | 0.0 | 0.0 | 0.00 | 0.00 | 0.00 | 92 | 1016.9 |